{"data":{"norad_id":47285,"epoch":"2026-09-20T00:10:07.679712Z","epoch_age_seconds":50380,"freshness":"FRESH","line1":"1 47285U 20100AD  26263.00703333 -.00000119  00000+0 -36502-3 0  9998","line2":"2 47285  87.8983 331.8299 0001827  99.2290 260.9045 13.12443762277167","mean_motion":13.12443762,"eccentricity":0.0001827,"inclination_deg":87.8983,"raan_deg":331.8299,"arg_perigee_deg":99.229,"mean_anomaly_deg":260.9045,"bstar":-0.00036502,"rev_number":27716,"period_min":109.71898695344,"perigee_km":1212.3333201718,"apogee_km":1215.1073848484,"semimajor_km":7591.8573525101,"source":"CELESTRAK","updated_at":"2026-09-20T09:00:44.581517Z"}}